This is the latest recevied weather packets stored in our database for station/object KB3GVC-13. If no packets are shown the sender has not sent any weather packets the latest 1 day(s).
| Time | Temp. | Humidity | Pressure | Rain* | Wind** | Luminosity | Snow |
|---|---|---|---|---|---|---|---|
| 1777993961 | 24.44° C | 47% | 1012.9 hPa | 0 mm | 2.24 m/s, 137° | - | - |
| 1777993658 | 23.89° C | 49% | 1012.6 hPa | 0 mm | 1.34 m/s, 105° | - | - |
| 1777993356 | 23.89° C | 48% | 1012.7 hPa | 0 mm | 3.13 m/s, 142° | - | - |
| 1777993055 | 24.44° C | 49% | 1012.8 hPa | 0 mm | 1.34 m/s, 111° | - | - |
| 1777992754 | 23.89° C | 48% | 1013 hPa | 0 mm | 1.79 m/s, 181° | - | - |
| 1777992451 | 23.89° C | 48% | 1012.9 hPa | 0 mm | 1.79 m/s, 133° | - | - |
| 1777992150 | 23.89° C | 49% | 1012.9 hPa | 0 mm | 0.45 m/s, 172° | - | - |
| 1777991846 | 23.33° C | 49% | 1012.7 hPa | 0 mm | 1.34 m/s, 245° | - | - |
| 1777991543 | 22.78° C | 49% | 1012.8 hPa | 0 mm | 0.89 m/s, 189° | - | - |
| 1777991240 | 23.33° C | 49% | 1013 hPa | 0 mm | 0.45 m/s, 200° | - | - |
| 1777990938 | 22.78° C | 49% | 1012.9 hPa | 0 mm | 0.89 m/s, 256° | - | - |
| 1777990635 | 22.78° C | 50% | 1012.8 hPa | 0 mm | 0.89 m/s, 268° | - | - |
| 1777990332 | 22.22° C | 51% | 1013.1 hPa | 0 mm | 1.34 m/s, 229° | - | - |
| 1777990028 | 22.22° C | 49% | 1013 hPa | 0 mm | 1.79 m/s, 250° | - | - |
| 1777989726 | 21.67° C | 51% | 1013.1 hPa | 0 mm | 1.79 m/s, 79° | - | - |
| 1777989422 | 21.67° C | 51% | 1013.1 hPa | 0 mm | 0.89 m/s, 203° | - | - |
| 1777989118 | 21.67° C | 51% | 1013.2 hPa | 0 mm | 1.34 m/s, 150° | - | - |
| 1777988814 | 21.67° C | 52% | 1013.1 hPa | 0 mm | 0.45 m/s, 224° | - | - |
| 1777988512 | 21.11° C | 53% | 1013.1 hPa | 0 mm | 0.89 m/s, 268° | - | - |
| 1777988209 | 21.11° C | 52% | 1013.3 hPa | 0 mm | 1.34 m/s, 263° | - | - |
| 1777987905 | 21.11° C | 53% | 1013.4 hPa | 0 mm | 1.34 m/s, 284° | - | - |
| 1777987601 | 21.11° C | 54% | 1013.4 hPa | 0 mm | 0.89 m/s, 246° | - | - |
| 1777987299 | 20.56° C | 54% | 1013.2 hPa | 0 mm | 0.89 m/s, 262° | - | - |
| 1777986995 | 21.11° C | 53% | 1013.4 hPa | 0 mm | 0.45 m/s, 231° | - | - |
| 1777986693 | 20.56° C | 55% | 1013.3 hPa | 0 mm | 0 m/s | - | - |
* Rain latest hour (hover to see other rain measurements)
** Current wind speed in m/s (hover to see current wind gust speed)